Location: *
(2.5500°S, 65.9667°W)
Time: 10:05:13
(UTC+00:00)

Explorer 7 - All Passes

Search period start: 17 April 2024 00:00
Search period end: 27 April 2024 00:00
Orbit: 468 x 629 km, 50.3° (Epoch: 16 April)

Date Brightness Start Highest point End Pass type
(mag) Time Alt. Az. Time Alt. Az. Time Alt. Az.
17 Apr - 01:25:21 10° NNW 01:29:06 46° NE 01:32:42 10° SE night (unlit)
17 Apr - 13:20:08 10° SW 13:24:26 82° NW 13:28:56 10° NE daylight
18 Apr - 01:19:10 10° NW 01:23:05 81° NE 01:26:51 10° SE night (unlit)
18 Apr - 11:38:22 10° SE 11:38:45 10° SE 11:39:08 10° ESE daylight
18 Apr - 13:14:13 10° SW 13:18:24 50° NW 13:22:44 10° NNE daylight
19 Apr - 01:13:10 10° NW 01:17:02 58° SW 01:20:44 10° SSE visible
19 Apr - 11:30:07 10° SSE 11:32:43 16° SE 11:35:22 10° E daylight
19 Apr - 13:08:30 10° WSW 13:12:20 32° NW 13:16:19 10° N daylight
19 Apr - 23:29:58 10° NNE 23:31:19 11° NE 23:32:39 10° ENE visible
20 Apr - 01:07:21 10° WNW 01:10:57 34° SW 01:14:25 10° SSE visible
20 Apr - 11:23:13 10° S 11:26:38 24° SE 11:30:09 10° ENE daylight
20 Apr - 13:03:02 10° WSW 13:06:16 21° NW 13:09:36 10° N daylight
20 Apr - 23:22:26 10° N 23:25:16 18° NE 23:28:01 10° E visible
21 Apr - 01:01:48 10° WNW 01:04:51 21° SW 01:07:48 10° S visible
21 Apr - 11:16:40 10° SSW 11:20:31 37° SE 11:24:33 10° ENE daylight
21 Apr - 12:58:03 10° W 13:00:11 13° NW 13:02:22 10° NNW daylight
21 Apr - 23:15:38 10° N 23:19:10 29° NE 23:22:35 10° ESE visible
22 Apr - 00:56:43 10° W 00:58:44 14° SW 01:00:42 10° SSW visible
22 Apr - 11:10:17 10° SSW 11:14:22 61° SE 11:18:39 10° NE daylight
22 Apr - 23:09:06 10° NNW 23:13:03 47° NE 23:16:49 10° SE visible
23 Apr - 11:04:05 10° SW 11:08:12 82° NW 11:12:31 10° NE daylight
23 Apr - 23:02:46 10° NW 23:06:53 81° NE 23:10:47 10° SE visible
24 Apr - 10:58:02 10° SW 11:02:00 50° NW 11:06:11 10° NNE daylight
24 Apr - 22:56:37 10° NW 23:00:41 60° SW 23:04:32 10° SSE visible
25 Apr - 09:13:58 10° SSE 09:16:14 15° SE 09:18:34 10° E visible
25 Apr - 10:52:10 10° WSW 10:55:49 31° NW 10:59:37 10° N daylight
25 Apr - 21:13:04 10° NNE 21:14:47 12° NE 21:16:29 10° ENE daylight
25 Apr - 22:50:39 10° WNW 22:54:27 36° SW 22:58:05 10° SSE visible
26 Apr - 09:06:50 10° S 09:10:01 22° SE 09:13:17 10° ENE visible
26 Apr - 10:46:34 10° W 10:49:36 20° NW 10:52:45 10° N daylight
26 Apr - 21:05:33 10° N 21:08:36 19° NE 21:11:33 10° E daylight
26 Apr - 22:44:54 10° WNW 22:48:12 23° SW 22:51:22 10° S visible
